AEZ88C LIRF-LIMJ

Flight info

Callsign AEZ88C
Flight time N/A
Altitude 30000
Route GILIO DCT ELB DCT BETEN/N0345F180 M729 IDONA
Aircraft B738/M-SDE2E3FGHIRWXY/LB1

Departure

Time N/A
Airport Rome–Fiumicino Leonardo da Vinci International Airport (LIRF)

Arrival

Time 2026-04-26 17:38
Airport Genoa Cristoforo Colombo Airport (LIMJ)
Time Latitude Longitude Altitude Speed Heading
2026-04-26 17:03 42.16825 11.21151 24992 ft 412 kts 313°
2026-04-26 17:04 42.18794 11.18331 25117 ft 413 kts 313°
2026-04-26 17:04 42.20762 11.15510 25133 ft 413 kts 313°
2026-04-26 17:04 42.22737 11.12676 25142 ft 414 kts 313°
2026-04-26 17:04 42.24711 11.09842 25143 ft 414 kts 313°
2026-04-26 17:05 42.26682 11.07009 25138 ft 414 kts 313°
2026-04-26 17:05 42.28650 11.04177 25136 ft 414 kts 313°
2026-04-26 17:05 42.30593 11.01378 25134 ft 413 kts 313°
2026-04-26 17:05 42.32559 10.98544 25134 ft 413 kts 313°
2026-04-26 17:06 42.34523 10.95711 25134 ft 413 kts 313°
2026-04-26 17:06 42.36491 10.92869 25134 ft 413 kts 313°
2026-04-26 17:06 42.38454 10.90035 25134 ft 413 kts 313°
2026-04-26 17:06 42.40411 10.87209 25123 ft 406 kts 313°
2026-04-26 17:07 42.42305 10.84474 25119 ft 391 kts 313°
2026-04-26 17:07 42.44132 10.81832 25117 ft 377 kts 313°
2026-04-26 17:07 42.45900 10.79273 25121 ft 369 kts 313°
2026-04-26 17:07 42.47653 10.76733 25137 ft 371 kts 313°
2026-04-26 17:08 42.49421 10.74170 25149 ft 373 kts 313°
2026-04-26 17:08 42.51195 10.71594 25148 ft 374 kts 313°
2026-04-26 17:08 42.52971 10.69014 25150 ft 375 kts 313°
2026-04-26 17:08 42.54751 10.66425 25142 ft 375 kts 313°
2026-04-26 17:09 42.56528 10.63838 25138 ft 374 kts 313°
2026-04-26 17:09 42.57106 10.62997 25136 ft 374 kts 313°
2026-04-26 17:09 42.60071 10.58674 25134 ft 373 kts 313°
2026-04-26 17:09 42.61834 10.56101 25130 ft 372 kts 313°
2026-04-26 17:10 42.63595 10.53529 25133 ft 371 kts 313°
2026-04-26 17:10 42.65350 10.50963 25137 ft 370 kts 313°
2026-04-26 17:10 42.67079 10.48433 25140 ft 370 kts 313°
2026-04-26 17:10 42.68833 10.45864 25140 ft 370 kts 313°
2026-04-26 17:11 42.70585 10.43295 25138 ft 370 kts 313°
2026-04-26 17:11 42.72359 10.40756 25136 ft 370 kts 317°
2026-04-26 17:11 42.74372 10.38578 25139 ft 371 kts 327°
2026-04-26 17:11 42.76605 10.36821 25157 ft 371 kts 330°
2026-04-26 17:12 42.81152 10.33451 25141 ft 372 kts 330°
2026-04-26 17:12 42.83424 10.31769 25140 ft 372 kts 330°
2026-04-26 17:13 42.87974 10.28368 25142 ft 372 kts 330°
2026-04-26 17:13 42.90242 10.26661 25141 ft 372 kts 330°
2026-04-26 17:13 42.94003 10.23818 25141 ft 372 kts 330°
2026-04-26 17:14 42.96266 10.22102 25139 ft 372 kts 330°
2026-04-26 17:14 43.01516 10.18115 25140 ft 371 kts 330°
2026-04-26 17:14 43.03771 10.16400 25142 ft 371 kts 330°
2026-04-26 17:15 43.07526 10.13540 25147 ft 371 kts 330°
2026-04-26 17:15 43.09812 10.11798 25146 ft 371 kts 330°
2026-04-26 17:15 43.12032 10.10104 25148 ft 371 kts 330°
2026-04-26 17:16 43.14291 10.08378 25141 ft 370 kts 330°
2026-04-26 17:16 43.16539 10.06660 25142 ft 370 kts 330°
2026-04-26 17:16 43.18772 10.04953 25130 ft 362 kts 330°
2026-04-26 17:16 43.20948 10.03288 24937 ft 356 kts 330°
2026-04-26 17:17 43.23092 10.01645 24711 ft 351 kts 329°
2026-04-26 17:17 43.25225 10.00009 24364 ft 350 kts 329°
2026-04-26 17:17 43.27339 9.98387 24038 ft 347 kts 329°
2026-04-26 17:17 43.29440 9.96773 23694 ft 345 kts 329°
2026-04-26 17:18 43.31531 9.95165 23299 ft 343 kts 329°
2026-04-26 17:18 43.33607 9.93568 22920 ft 341 kts 329°
2026-04-26 17:18 43.35670 9.91980 22559 ft 339 kts 329°
2026-04-26 17:18 43.37720 9.90401 22208 ft 336 kts 329°
2026-04-26 17:19 43.41767 9.87278 21529 ft 331 kts 329°
2026-04-26 17:19 43.43772 9.85730 21192 ft 329 kts 329°
2026-04-26 17:19 43.45759 9.84194 20858 ft 327 kts 329°
2026-04-26 17:20 43.47714 9.82682 20526 ft 325 kts 329°
2026-04-26 17:20 43.49042 9.81654 20305 ft 324 kts 329°
2026-04-26 17:20 43.51636 9.79645 19873 ft 322 kts 329°
2026-04-26 17:20 43.53580 9.78138 19544 ft 320 kts 329°
2026-04-26 17:21 43.55519 9.76633 19216 ft 319 kts 329°
2026-04-26 17:21 43.57453 9.75137 18853 ft 319 kts 329°
2026-04-26 17:21 43.59384 9.73644 18678 ft 315 kts 329°
2026-04-26 17:21 43.61269 9.72187 18649 ft 307 kts 329°
2026-04-26 17:22 43.63098 9.70772 18635 ft 295 kts 329°
2026-04-26 17:22 43.64845 9.69419 18625 ft 282 kts 329°
2026-04-26 17:22 43.66521 9.68120 18626 ft 270 kts 329°
2026-04-26 17:22 43.68136 9.66866 18538 ft 265 kts 329°
2026-04-26 17:23 43.69779 9.65588 17828 ft 280 kts 329°
2026-04-26 17:23 43.71559 9.64202 16716 ft 308 kts 330°
2026-04-26 17:23 43.73480 9.62771 16141 ft 315 kts 332°
2026-04-26 17:23 43.75414 9.61431 15711 ft 309 kts 333°
2026-04-26 17:24 43.77346 9.60114 15163 ft 308 kts 334°
2026-04-26 17:24 43.79271 9.58803 14627 ft 308 kts 334°
2026-04-26 17:24 43.81192 9.57489 14114 ft 307 kts 334°
2026-04-26 17:24 43.83092 9.56183 13616 ft 304 kts 334°
2026-04-26 17:25 43.84981 9.54880 13090 ft 302 kts 334°
2026-04-26 17:25 43.86852 9.53585 12556 ft 300 kts 334°
2026-04-26 17:25 43.88696 9.52306 12040 ft 299 kts 333°
2026-04-26 17:25 43.90551 9.51017 11545 ft 297 kts 334°
2026-04-26 17:26 43.92386 9.49741 11199 ft 293 kts 333°
2026-04-26 17:26 43.94198 9.48478 11151 ft 289 kts 333°
2026-04-26 17:26 43.95964 9.47246 11132 ft 278 kts 334°
2026-04-26 17:26 43.97643 9.46075 11043 ft 265 kts 334°
2026-04-26 17:27 43.99302 9.44916 10525 ft 269 kts 334°
2026-04-26 17:27 44.00976 9.43747 10062 ft 270 kts 334°
2026-04-26 17:27 44.02658 9.42571 9554 ft 271 kts 334°
2026-04-26 17:27 44.04331 9.41400 9204 ft 265 kts 334°
2026-04-26 17:28 44.05954 9.40263 8941 ft 258 kts 334°
2026-04-26 17:28 44.07532 9.39157 8670 ft 251 kts 334°
2026-04-26 17:28 44.09083 9.38070 8414 ft 248 kts 334°
2026-04-26 17:28 44.10629 9.36986 8170 ft 248 kts 334°
2026-04-26 17:29 44.12165 9.35908 8008 ft 245 kts 334°
2026-04-26 17:29 44.13175 9.35199 7873 ft 246 kts 334°
2026-04-26 17:29 44.15242 9.33747 7476 ft 253 kts 334°
2026-04-26 17:29 44.16829 9.32632 7171 ft 255 kts 334°
2026-04-26 17:30 44.18396 9.31528 6917 ft 250 kts 334°
2026-04-26 17:30 44.19923 9.30452 6792 ft 243 kts 334°
2026-04-26 17:30 44.21426 9.29394 6684 ft 242 kts 334°
2026-04-26 17:30 44.22944 9.28325 6595 ft 247 kts 334°
2026-04-26 17:31 44.24476 9.27245 6466 ft 250 kts 334°
2026-04-26 17:31 44.24503 9.27226 6472 ft 250 kts 334°
2026-04-26 17:31 44.25615 9.26441 6392 ft 251 kts 334°
2026-04-26 17:31 44.27179 9.25338 6136 ft 249 kts 334°
2026-04-26 17:32 44.28646 9.24169 5882 ft 238 kts 321°
2026-04-26 17:32 44.29760 9.22534 5605 ft 227 kts 312°
2026-04-26 17:32 44.30810 9.20921 5347 ft 222 kts 313°
2026-04-26 17:32 44.31863 9.19342 5065 ft 223 kts 314°
2026-04-26 17:33 44.32926 9.17760 4789 ft 223 kts 314°
2026-04-26 17:33 44.33986 9.16168 4504 ft 224 kts 310°
2026-04-26 17:33 44.34698 9.14250 4366 ft 224 kts 286°
2026-04-26 17:34 44.35584 9.10153 3758 ft 216 kts 287°
2026-04-26 17:34 44.36027 9.08167 3459 ft 213 kts 285°
2026-04-26 17:34 44.36452 9.06212 3178 ft 209 kts 285°
2026-04-26 17:34 44.36865 9.04304 2893 ft 207 kts 285°
2026-04-26 17:35 44.37279 9.02393 2598 ft 205 kts 284°
2026-04-26 17:35 44.37699 9.00502 2310 ft 203 kts 287°
2026-04-26 17:35 44.38235 8.98668 1956 ft 202 kts 291°
2026-04-26 17:35 44.38735 8.96881 1630 ft 191 kts 287°
2026-04-26 17:36 44.39089 8.95162 1372 ft 177 kts 283°
2026-04-26 17:36 44.39358 8.93567 1174 ft 162 kts 282°
2026-04-26 17:36 44.39641 8.92098 955 ft 155 kts 285°
2026-04-26 17:36 44.39932 8.90670 800 ft 150 kts 284°
2026-04-26 17:37 44.40197 8.89258 565 ft 150 kts 282°
2026-04-26 17:37 44.40464 8.87878 355 ft 146 kts 284°
2026-04-26 17:37 44.40731 8.86514 174 ft 145 kts 283°
2026-04-26 17:38 44.41221 8.84049 20 ft 99 kts 285°
2026-04-26 17:38 44.41343 8.83431 23 ft 32 kts 285°
2026-04-26 17:38 44.41409 8.83176 21 ft 21 kts 307°
2026-04-26 17:38 44.41463 8.83103 23 ft 0 kts 326°
2026-04-26 17:39 44.41471 8.83096 23 ft 5 kts 331°
2026-04-26 17:39 44.41527 8.83097 25 ft 10 kts 33°
2026-04-26 17:39 44.41545 8.83185 24 ft 11 kts 103°
2026-04-26 17:39 44.41521 8.83310 23 ft 16 kts 105°
2026-04-26 17:40 44.41488 8.83482 21 ft 19 kts 105°
2026-04-26 17:40 44.41464 8.83603 20 ft 19 kts 105°
2026-04-26 17:40 44.41418 8.83834 18 ft 18 kts 105°
2026-04-26 17:40 44.41386 8.84001 17 ft 18 kts 106°
2026-04-26 17:41 44.41354 8.84163 16 ft 17 kts 105°
2026-04-26 17:41 44.41323 8.84320 17 ft 16 kts 105°
2026-04-26 17:41 44.41293 8.84470 18 ft 16 kts 105°
2026-04-26 17:41 44.41265 8.84615 18 ft 15 kts 105°
2026-04-26 17:42 44.41237 8.84755 19 ft 15 kts 105°
2026-04-26 17:42 44.41217 8.84857 15 ft 9 kts 105°
2026-04-26 17:42 44.41243 8.84922 16 ft 9 kts 19°
2026-04-26 17:42 44.41302 8.84945 17 ft 9 kts 15°
2026-04-26 17:43 44.41343 8.84994 17 ft 8 kts 83°
2026-04-26 17:43 44.41335 8.85065 17 ft 6 kts 84°
2026-04-26 17:43 44.41371 8.85093 17 ft 6 kts 15°
2026-04-26 17:43 44.41401 8.85104 17 ft 2 kts 14°
2026-04-26 17:44 44.41403 8.85105 17 ft 0 kts 14°